CZ-6A DEB, 54440

Orbit data source: Space-Track

CZ-6A DEB, 54440 is space debris in SSO originally from a launch on Fri, 11 Nov 2022 UTC launched from the Taiyaun Space Center, China (TSC). Debris objects in space refer to the collection of defunct objects orbiting the Earth. Examples of debris include non-operational satellites, rocket bodies, and fragments generated from explosions, collisions, or faulty payload assembly.

Loading next visibility...
Identifier
54440, 2022-151FQ
Orbit
SSO
Country
Flag of CNCN / PRC
Related business
Manufacturer
SAST
Mission
Spacecraft
Bus & Motor
Unknown
Mass
Unknown
Launch date (UTC)
2022-11-11 (4 years ago)
Launch vehicle
Unknown
Launch site
Taiyaun Space Center, China (TSC)
Object type
Payload
Rocket body
Debris
Shape & HBR
Unknown shape, 0.1 m
Radar Cross Section
Small (<0.1 m²)

Expand to show TLE details & history
Last TLE update: 16 hours ago

TLE from 16 hours ago
0 CZ-6A DEB
1 54440U 22151FQ  26209.02774772  .00003868  00000-0  95155-3 0  9996
2 54440  98.4805 226.5421 0076309 197.0734 162.7891 14.51102854194853
Epoch: 2026-07-28T00:39Z
TLE epoch observation values (Epoch: 2026-07-28T00:39:57.403Z)
Latitude
-0.00003°
Longitude
-89.14994°
Altitude
776.814 km
Speed
7.438 km/s
True Right ascension
15h 06m 10s
True Declination
0° 00' 00"
Sunlit
Object was in daylight at epoch
Visualization orbit readout
Latitude
Unknown
Longitude
Unknown
Altitude
Unknown
Speed
Unknown
Apparent Right ascension
Unknown
Apparent Declination
Unknown
Sunlit
N/A
Visualization observer readout
Local Sidereal Time
06:26:44
Azimuth
Unknown
Elevation
Unknown
Doppler factor
Unknown
Orbital elements
Apogee altitude
773.313 km
Perigee altitude
664.996 km
Semi-major axis
7,097.292 km
Eccentricity
0.00763
Inclination
98.4805°
RAAN
226.5421°
Arg. of periapsis
197.0734°
True anomaly
163.0455°
Mean anomaly
162.7891°
Eccentric anomaly
162.91753°
Mean motion
3.62998 °/min
Orbital period
99.17 mins
BSTAR
0.00095155
Loading maneuver chart data...
Computing Atmospheric mass density...
Loading historical data...
Loading historical data...
Loading historical data...
Loading historical data...
Loading historical data...
Loading historical data...
Loading historical data...

Documentation

Showing up to 5 results
|